• In Netherlands
  • List of Countries
  • For 7 days
  • Water Temperature
  • Satellite Maps
  • Weather Map
  • Weather Widgets
  • user-avatar
    Login

    Hourly Weather Barisal

    Today, 27 May, Saturday

    Time Temperature Precipitation Wind Pressure Humidity
    00:00 +32°C° 0 mm 2 mps 753 mmHg 74%
    01:00 +31°C° 0 mm 2 mps 753 mmHg 76%
    02:00 +31°C° 0 mm 2 mps 752 mmHg 78%
    03:00 +31°C° 0 mm 1 mps 752 mmHg 80%
    04:00 +31°C° 0 mm 1 mps 752 mmHg 80%
    05:00 +31°C° 0 mm 1 mps 752 mmHg 80%
    06:00 +31°C° 0 mm 1 mps 752 mmHg 75%
    07:00 +32°C° 0 mm 1 mps 752 mmHg 67%
    08:00 +34°C° 0 mm 1 mps 752 mmHg 59%
    09:00 +35°C° 0 mm 1 mps 752 mmHg 50%
    10:00 +37°C° 0 mm 1 mps 752 mmHg 45%
    11:00 +40°C° 0 mm 2 mps 752 mmHg 39%
    12:00 +42°C° 0 mm 2 mps 752 mmHg 33%
    13:00 +42°C° 0 mm 2 mps 751 mmHg 32%
    14:00 +43°C° 0 mm 3 mps 750 mmHg 32%
    15:00 +43°C° 0 mm 4 mps 750 mmHg 31%
    16:00 +42°C° 0 mm 4 mps 750 mmHg 35%
    17:00 +41°C° 0 mm 4 mps 749 mmHg 39%
    18:00 +39°C° 0 mm 5 mps 749 mmHg 42%
    19:00 +37°C° 0 mm 4 mps 750 mmHg 48%
    20:00 +36°C° 0 mm 4 mps 750 mmHg 53%
    21:00 +34°C° 0 mm 4 mps 751 mmHg 59%
    22:00 +34°C° 0 mm 3 mps 751 mmHg 63%
    23:00 +34°C° 0 mm 3 mps 751 mmHg 66%

    Tomorrow, 28 May, Sunday

    Time Temperature Precipitation Wind Pressure Humidity
    00:00 +33°C° 0 mm 3 mps 751 mmHg 69%
    01:00 +32°C° 0 mm 2 mps 751 mmHg 71%
    02:00 +32°C° 0 mm 2 mps 751 mmHg 74%
    03:00 +31°C° 0 mm 1 mps 750 mmHg 76%
    04:00 +31°C° 0.1 mm 1 mps 751 mmHg 76%
    05:00 +31°C° 0.1 mm 1 mps 751 mmHg 76%
    06:00 +31°C° 0.1 mm 1 mps 751 mmHg 76%
    07:00 +33°C° 0 mm 1 mps 751 mmHg 67%
    08:00 +35°C° 0 mm 1 mps 751 mmHg 58%
    09:00 +36°C° 0 mm 1 mps 752 mmHg 49%
    10:00 +39°C° 0 mm 2 mps 751 mmHg 45%
    11:00 +40°C° 0 mm 2 mps 751 mmHg 40%
    12:00 +41°C° 0 mm 2 mps 751 mmHg 36%
    13:00 +41°C° 0 mm 2 mps 750 mmHg 35%
    14:00 +41°C° 0 mm 2 mps 749 mmHg 35%
    15:00 +41°C° 0 mm 2 mps 749 mmHg 35%
    16:00 +42°C° 0 mm 3 mps 748 mmHg 36%
    17:00 +40°C° 0 mm 3 mps 748 mmHg 37%
    18:00 +41°C° 0 mm 4 mps 748 mmHg 39%
    19:00 +38°C° 0 mm 4 mps 749 mmHg 44%
    20:00 +37°C° 0 mm 4 mps 749 mmHg 48%
    21:00 +35°C° 0 mm 4 mps 750 mmHg 53%
    22:00 +35°C° 0 mm 3 mps 750 mmHg 55%
    23:00 +34°C° 0 mm 3 mps 750 mmHg 58%

    Day after tomorrow, 29 May, Monday

    Time Temperature Precipitation Wind Pressure Humidity
    00:00 +34°C° 0 mm 2 mps 750 mmHg 60%
    01:00 +34°C° 0.3 mm 2 mps 750 mmHg 62%
    02:00 +32°C° 0.3 mm 2 mps 749 mmHg 65%
    03:00 +32°C° 0.3 mm 2 mps 749 mmHg 67%
    04:00 +32°C° 0 mm 2 mps 749 mmHg 68%
    05:00 +32°C° 0 mm 2 mps 749 mmHg 69%
    06:00 +32°C° 0 mm 1 mps 749 mmHg 69%
    07:00 +34°C° 0 mm 2 mps 750 mmHg 63%
    08:00 +36°C° 0 mm 3 mps 750 mmHg 58%
    09:00 +37°C° 0 mm 3 mps 751 mmHg 52%
    10:00 +38°C° 0.1 mm 4 mps 750 mmHg 49%
    11:00 +40°C° 0.1 mm 4 mps 750 mmHg 46%
    12:00 +40°C° 0.1 mm 4 mps 750 mmHg 43%
    13:00 +40°C° 0.1 mm 5 mps 749 mmHg 44%
    14:00 +39°C° 0.1 mm 5 mps 749 mmHg 45%
    15:00 +39°C° 0.1 mm 6 mps 748 mmHg 46%
    16:00 +38°C° 0 mm 6 mps 748 mmHg 50%
    17:00 +35°C° 0 mm 6 mps 748 mmHg 55%
    18:00 +34°C° 0 mm 6 mps 748 mmHg 59%
    19:00 +33°C° 0.2 mm 6 mps 749 mmHg 62%
    20:00 +33°C° 0.2 mm 5 mps 749 mmHg 65%
    21:00 +33°C° 0.2 mm 5 mps 750 mmHg 67%
    22:00 +32°C° 1.7 mm 5 mps 750 mmHg 71%
    23:00 +30°C° 1.7 mm 5 mps 750 mmHg 75%

    30 May, Tuesday

    Time Temperature Precipitation Wind Pressure Humidity
    00:00 +30°C° 1.7 mm 5 mps 750 mmHg 79%
    01:00 +29°C° 4.5 mm 5 mps 749 mmHg 82%
    02:00 +29°C° 4.5 mm 5 mps 749 mmHg 84%
    03:00 +28°C° 4.5 mm 5 mps 748 mmHg 87%
    04:00 +28°C° 4.2 mm 6 mps 748 mmHg 88%
    05:00 +28°C° 4.2 mm 6 mps 748 mmHg 88%
    06:00 +28°C° 4.2 mm 6 mps 748 mmHg 89%
    07:00 +29°C° 1 mm 7 mps 748 mmHg 85%
    08:00 +31°C° 1 mm 8 mps 748 mmHg 82%
    09:00 +31°C° 1 mm 9 mps 749 mmHg 78%
    10:00 +31°C° 1.2 mm 9 mps 748 mmHg 77%
    11:00 +31°C° 1.2 mm 9 mps 747 mmHg 77%
    12:00 +31°C° 1.2 mm 9 mps 746 mmHg 76%
    13:00 +31°C° 1.5 mm 9 mps 745 mmHg 76%
    14:00 +32°C° 1.5 mm 10 mps 744 mmHg 75%
    15:00 +32°C° 1.5 mm 11 mps 742 mmHg 75%
    16:00 +31°C° 2.1 mm 11 mps 742 mmHg 77%
    17:00 +31°C° 2.1 mm 12 mps 741 mmHg 80%
    18:00 +31°C° 2.1 mm 13 mps 740 mmHg 82%
    19:00 +29°C° 5.1 mm 14 mps 740 mmHg 83%
    20:00 +29°C° 5.1 mm 15 mps 740 mmHg 84%
    21:00 +29°C° 5.1 mm 17 mps 739 mmHg 85%
    22:00 +31°C° 7 mm 19 mps 739 mmHg 83%
    23:00 +31°C° 7 mm 21 mps 738 mmHg 81%

    31 May, Wednesday

    Time Temperature Precipitation Wind Pressure Humidity
    00:00 +31°C° 7 mm 23 mps 738 mmHg 78%
    01:00 +31°C° 13.9 mm 24 mps 737 mmHg 80%
    02:00 +31°C° 13.9 mm 26 mps 737 mmHg 82%
    03:00 +29°C° 13.9 mm 27 mps 736 mmHg 84%
    04:00 +29°C° 7.4 mm 27 mps 736 mmHg 85%
    05:00 +29°C° 7.4 mm 26 mps 737 mmHg 85%
    06:00 +28°C° 7.4 mm 26 mps 737 mmHg 85%
    07:00 +28°C° 3.6 mm 24 mps 738 mmHg 86%
    08:00 +28°C° 3.6 mm 22 mps 740 mmHg 86%
    09:00 +28°C° 3.6 mm 21 mps 741 mmHg 86%
    10:00 +28°C° 1.9 mm 18 mps 742 mmHg 87%
    11:00 +28°C° 1.9 mm 16 mps 742 mmHg 87%
    12:00 +27°C° 1.9 mm 14 mps 743 mmHg 87%
    13:00 +28°C° 0.9 mm 12 mps 743 mmHg 85%
    14:00 +29°C° 0.9 mm 11 mps 744 mmHg 83%
    15:00 +29°C° 0.9 mm 9 mps 744 mmHg 81%
    16:00 +29°C° 0.3 mm 8 mps 745 mmHg 81%
    17:00 +29°C° 0.3 mm 7 mps 745 mmHg 82%
    18:00 +29°C° 0.3 mm 6 mps 746 mmHg 83%
    19:00 +29°C° 0 mm 5 mps 747 mmHg 84%
    20:00 +29°C° 0 mm 4 mps 748 mmHg 85%
    21:00 +29°C° 0 mm 4 mps 748 mmHg 86%
    22:00 +28°C° 0 mm 4 mps 748 mmHg 86%
    23:00 +28°C° 0 mm 3 mps 749 mmHg 87%

    1 June, Thursday

    Time Temperature Precipitation Wind Pressure Humidity
    00:00 +28°C° 0 mm 3 mps 749 mmHg 87%
    01:00 +28°C° 1.3 mm 3 mps 749 mmHg 88%
    02:00 +28°C° 1.3 mm 3 mps 749 mmHg 89%
    03:00 +28°C° 1.3 mm 3 mps 749 mmHg 90%
    04:00 +28°C° 1.4 mm 3 mps 749 mmHg 90%
    05:00 +28°C° 1.4 mm 3 mps 750 mmHg 89%
    06:00 +28°C° 1.4 mm 3 mps 750 mmHg 88%
    07:00 +30°C° 0.3 mm 4 mps 751 mmHg 83%
    08:00 +32°C° 0.3 mm 5 mps 751 mmHg 78%
    09:00 +34°C° 0.3 mm 6 mps 752 mmHg 72%
    10:00 +34°C° 1 mm 5 mps 751 mmHg 70%
    11:00 +35°C° 1 mm 5 mps 751 mmHg 68%
    12:00 +35°C° 1 mm 5 mps 751 mmHg 67%
    13:00 +36°C° 1.2 mm 5 mps 750 mmHg 64%
    14:00 +36°C° 1.2 mm 6 mps 750 mmHg 62%
    15:00 +36°C° 1.2 mm 6 mps 750 mmHg 60%
    16:00 +35°C° 0.8 mm 6 mps 750 mmHg 64%
    17:00 +34°C° 0.8 mm 6 mps 750 mmHg 69%
    18:00 +34°C° 0.8 mm 5 mps 750 mmHg 73%
    19:00 +33°C° 0 mm 5 mps 750 mmHg 77%
    20:00 +32°C° 0 mm 6 mps 751 mmHg 81%
    21:00 +30°C° 0 mm 6 mps 751 mmHg 85%
    22:00 +30°C° 1.8 mm 5 mps 751 mmHg 85%
    23:00 +30°C° 1.8 mm 5 mps 751 mmHg 86%
    Show more